SCP
0 0 0 0 0 1 1 1 0 1 1 0 0 -0 0 0 0 1 0 0 0 -0 -0 -0 -0 -0 -0 -0 -0 -0 -0 -0 -0 -0 -0 -0 -0 -0 -0 -0 -0 -0 -0
0 0 0 0 0 1 1 1 1 -0 0 1 0 -0 -0 0 1 0 0 0 -0 -0 -0 -0 -0 -0 -0 -0 -0 -0 -0 -0 -0 -0 -0 -0 -0 -0 -0 -0 -0 -0 -0
0 1 0 0 1 1 1 1 1 0 -0 0 -0 0 0 1 1 1 0 0 -0 -0 -0 -0 -0 -0 -0 -0 -0 -0 -0 -0 -0 -0 -0 -0 -0 -0 -0 -0 -0 -0 -0
0 1 1 1 1 1 1 -0 0 0 1 -0 0 0 1 1 0 -0 0 -0 -0 -0 -0 -0 -0 -0 -0 -0 -0 -0 -0 -0 -0 0 -0 -0 -0 -0 -0 -0 -0 -0 -0
0 1 1 2 2 2 2 2 1 0 -1 -1 0 -1 0 0 0 0 -0 -0 -0 -0 -0 -0 -0 -0 -0 -0 -0 -0 -0 0 0 0 -0 -0 0 -0 -0 -0 -0 -0 -0
1 1 1 3 3 2 2 1 0 1 0 -1 -1 -1 1 0 -0 -0 -0 -0 -0 -0 -0 -0 -0 -0 -0 -0 -0 -0 0 -0 -0 0 0 0 0 -0 -0 -0 -0 -0 -0
1 2 0 1 2 2 1 1 1 0 1 0 -1 -0 1 1 0 -0 -0 -0 -0 -0 -0 -0 -0 -0 -0 -0 -0 0 -0 -0 0 0 0 0 0 -0 -0 -0 -0 -0 -0
1 1 0 0 0 0 1 1 1 0 1 0 0 0 1 1 0 0 0 0 -0 -0 -0 -0 -0 -0 -0 -0 -0 0 -0 -0 0 0 0 0 -0 -0 -0 -0 -0 -0 -0
1 0 0 0 0 -0 0 2 1 1 0 0 0 0 0 0 0 0 0 0 0 -0 -0 -0 -0 -0 -0 -0 -0 -0 -0 -0 0 0 0 0 0 0 -0 -0 -0 -0 -0
0 0 0 0 -0 0 0 0 0 0 0 0 0 0 0 0 0 0 0 0 0 -0 -0 -0 -0 0 -0 -0 -0 -0 -0 -0 0 0 0 0 0 0 0 -0 -0 -0 -0
0 0 0 -0 -0 0 0 0 0 0 0 0 1 0 0 1 1 0 0 0 0 0 -0 0 0 0 0 0 0 -0 -0 0 0 0 0 0 0 0 0 -0 -0 -0 -0
1 0 0 -0 -0 0 -0 -0 -0 0 0 1 1 0 0 1 1 0 0 0 0 0 0 0 0 0 0 0 0 -0 0 0 0 0 0 0 0 0 0 0 -0 0 0
1 0 0 0 0 0 0 0 0 0 0 0 0 0 0 1 1 0 0 0 0 0 0 0 0 0 0 0 -0 0 0 0 0 0 0 0 0 0 0 0 0 0 0
0 0 0 0 0 0 0 0 0 0 0 1 0 0 1 2 1 0 0 0 0 0 0 0 0 0 0 0 0 0 0 0 0 0 0 0 0 0 0 0 0 0 0
0 0 0 0 0 0 0 0 0 1 0 1 0 0 1 1 0 0 0 0 0 0 0 0 0 0 0 0 0 0 0 0 0 0 0 0 0 0 0 0 0 0 0
0 0 0 0 0 0 0 0 0 0 0 0 1 0 0 0 0 0 0 0 0 0 0 0 0 0 0 0 0 0 0 0 0 0 0 0 0 0 0 0 0 0 0
0 0 0 0 0 0 0 0 0 0 0 0 0 0 0 0 0 0 0 0 0 0 0 0 0 0 0 0 0 0 0 0 0 0 0 0 0 0 0 0 0 0 0
0 0 0 0 0 0 0 0 0 0 0 0 1 1 0 0 0 0 0 0 0 0 0 0 0 0 0 0 0 0 0 0 0 0 0 0 0 0 0 0 0 0 0
0 0 0 0 0 0 0 0 0 0 0 0 0 0 0 0 0 0 0 0 0 0 0 0 0 0 0 0 0 0 0 0 0 0 0 0 0 0 0 0 0 0 0
0 0 0 0 0 0 0 0 0 0 0 0 0 0 0 0 0 0 0 0 0 0 0 0 0 0 0 0 0 0 0 0 0 0 0 0 0 0 0 0 0 0 0
0 0 0 0 0 0 -0 0 0 0 0 0 0 0 0 0 0 0 0 0 0 0 0 0 0 0 0 0 0 0 0 0 0 0 0 0 0 0 0 0 0 0 0
0 0 0 0 0 0 0 0 0 0 0 0 0 0 0 0 0 0 0 0 0 0 0 0 0 0 0 0 0 0 0 0 0 0 0 0 0 0 0 0 0 0 0
0 -0 -0 -0 -0 0 -0 0 0 0 0 0 0 0 0 0 0 0 0 0 0 0 0 0 0 0 0 0 0 0 0 0 0 0 0 0 0 0 0 0 0 0 0
-0 -0 -0 -0 -0 0 0 0 0 0 0 0 0 0 0 0 0 0 0 0 0 0 0 0 0 0 0 0 0 0 0 0 0 0 0 0 0 0 0 0 0 0 0
-0 -0 -0 -0 -0 -0 0 0 0 0 0 0 0 0 0 0 0 0 0 0 0 0 0 0 0 -0 0 0 0 0 0 0 0 0 0 0 0 0 0 0 0 0 0
-0 -0 -0 -0 -0 -0 -0 -0 0 0 0 0 0 0 0 0 0 0 0 0 0 0 0 0 0 -0 0 0 0 0 0 0 0 0 0 0 0 0 0 0 0 0 0
Wind_Speed_500mb
27 36 63 65 56 62 65 63 59 65 62 61 63 55 54 49 47 49 47 44 42 42 41 38 36 36 37 37 37 35 36 37 38 39 38 38 39 40 40 41 42 39 40
31 37 65 62 64 63 70 68 65 56 66 65 66 60 57 55 50 48 48 47 45 41 42 41 40 40 41 40 40 38 38 39 40 44 48 45 43 44 42 41 40 36 36
28 40 56 65 60 69 55 72 72 75 73 71 70 61 58 60 48 48 49 45 46 42 40 41 41 42 45 45 43 40 39 40 45 47 50 44 44 44 43 40 39 40 38
13 38 48 73 69 60 63 78 79 80 76 75 72 66 60 60 44 33 48 47 44 41 41 42 44 47 47 46 45 43 43 46 53 50 39 41 40 43 41 37 40 38 36
21 30 52 75 73 65 75 81 81 78 74 77 73 65 62 58 48 50 50 48 45 43 46 47 50 49 49 48 47 46 46 47 61 41 37 39 37 38 40 37 38 37 35
25 29 50 77 77 75 75 76 82 82 77 79 73 66 59 59 54 53 51 50 46 47 52 55 53 51 49 48 47 47 46 46 46 40 38 39 36 38 32 30 32 30 31
25 30 48 67 75 80 81 76 85 83 84 82 74 67 61 59 57 55 56 54 49 51 57 57 53 52 50 49 47 45 43 52 36 37 36 35 35 34 33 33 34 34 34
30 36 38 63 46 51 75 81 87 87 87 79 73 67 57 58 58 60 59 54 52 58 58 54 52 51 47 48 45 44 41 46 37 36 36 35 36 35 33 34 33 33 32
31 26 30 29 48 98 70 73 85 94 87 80 73 66 58 57 62 64 61 57 56 58 55 53 50 46 42 43 41 40 39 47 33 32 34 33 34 33 33 33 32 33 31
23 24 20 22 29 68 60 61 61 67 81 83 73 68 65 60 65 68 65 58 56 58 56 51 48 43 42 39 38 36 34 40 31 31 28 32 33 32 32 32 31 31 30
20 12 11 24 10 49 58 54 58 67 74 77 72 71 71 74 69 69 63 60 58 56 54 51 47 42 40 35 34 33 32 28 29 25 27 31 32 31 29 29 29 28 27
12 20 15 37 41 50 63 57 70 71 54 70 71 71 72 77 71 58 64 62 57 53 53 52 45 40 37 35 32 28 23 26 27 26 29 28 27 26 25 25 26 25 24
11 19 15 25 46 65 63 55 57 77 68 70 75 76 71 73 73 65 71 65 58 53 57 54 47 39 30 27 27 22 24 22 23 26 25 24 24 22 22 23 22 21 20
18 18 21 21 44 53 52 66 67 66 80 76 72 83 77 79 79 71 64 63 62 58 59 55 48 35 32 26 25 24 24 22 22 24 23 22 22 20 20 19 18 17 15
18 17 19 25 30 41 61 70 78 80 80 81 82 85 80 82 81 82 63 59 56 53 55 49 42 38 32 29 24 22 22 22 24 23 24 21 21 20 18 16 14 13 12
15 15 19 21 25 31 40 64 73 92 98 85 88 86 83 86 89 90 65 57 57 54 51 46 42 38 34 30 27 26 22 21 22 24 22 23 19 19 17 16 10 8 7
15 16 21 24 26 32 43 53 67 85 99 104 91 86 87 85 93 82 79 56 54 51 50 46 45 37 34 30 30 26 23 23 22 25 26 25 25 20 15 10 10 7 6
19 21 21 18 19 21 42 59 81 88 122 114 100 91 85 90 88 72 79 57 55 55 53 53 45 42 37 29 28 25 24 23 24 25 25 26 28 26 21 15 12 10 7
19 20 24 19 12 13 35 38 56 106 114 99 112 90 91 92 86 79 79 59 67 60 57 52 46 42 38 31 26 26 26 25 26 25 28 30 29 28 24 22 18 15 13
20 18 23 14 11 13 21 33 66 108 104 108 105 109 92 88 88 93 85 73 69 62 57 49 47 44 34 25 24 24 25 25 26 27 29 31 27 29 28 27 25 25 22
21 18 21 12 13 17 19 55 69 88 98 90 103 92 76 88 94 90 81 75 69 62 56 56 49 45 37 35 25 23 29 38 35 35 36 36 37 35 32 30 29 27 32
24 23 22 18 21 32 23 48 71 75 74 76 78 70 63 81 89 88 85 75 67 54 57 57 55 42 44 44 39 22 19 27 46 47 44 42 39 38 40 41 38 38 35
31 26 29 25 28 34 35 51 59 58 60 65 66 68 69 67 85 88 80 69 65 61 57 54 53 46 46 45 50 24 17 24 23 35 53 50 50 52 44 45 49 45 42
36 26 29 27 30 40 46 56 59 63 70 71 67 67 76 76 69 67 73 69 60 60 55 50 49 48 49 49 56 61 44 22 20 16 29 45 54 59 58 49 48 55 54
36 35 34 28 31 44 50 53 60 69 78 73 68 70 77 75 82 76 57 55 52 52 46 47 47 63 58 50 46 49 57 58 59 52 38 26 37 52 57 63 70 65 66
35 35 36 36 33 45 47 48 55 71 84 77 77 65 73 77 80 87 87 74 64 57 60 58 59 66 66 69 61 58 52 48 49 50 67 74 52 62 59 60 61 69 73
Wind_Direction_500mb
198 190 187 183 185 185 189 186 184 178 181 177 173 164 165 161 160 158 154 153 150 148 142 140 138 138 137 137 133 132 128 125 121 116 113 114 113 114 117 102 92 100 119
198 197 191 190 189 191 194 188 188 193 183 181 175 168 168 162 161 158 155 154 152 149 143 143 141 138 133 130 128 127 126 125 120 115 105 99 100 101 104 111 107 109 121
209 196 205 199 196 197 207 194 191 186 183 181 178 172 169 164 157 160 158 153 155 151 147 146 141 138 131 129 126 126 124 123 119 109 103 105 105 108 108 105 99 100 100
236 212 205 207 203 205 205 198 192 188 185 180 177 175 169 164 161 170 164 159 161 156 147 143 138 134 133 129 127 126 124 119 104 90 101 105 109 117 116 118 116 108 108
266 226 213 215 209 202 202 197 194 191 188 183 180 176 170 167 169 168 169 167 163 153 146 143 138 134 131 128 127 126 126 124 109 112 112 111 111 127 128 115 109 109 108
266 241 217 218 204 201 193 192 194 193 188 186 183 177 174 172 171 169 170 167 162 156 147 141 134 132 132 129 127 127 126 116 104 114 115 114 116 122 112 110 102 103 98
273 264 239 228 212 205 200 196 199 193 190 187 182 178 174 174 173 170 170 166 163 155 146 141 136 133 129 127 125 126 126 110 115 111 113 115 115 115 118 113 108 105 98
266 254 245 244 255 210 201 196 197 192 190 188 184 180 178 178 174 171 169 164 159 153 148 142 140 135 130 125 127 128 125 114 114 115 112 115 121 116 111 105 102 98 95
263 253 240 263 253 236 202 200 195 192 189 186 184 182 182 182 175 171 166 161 161 156 152 148 143 134 129 124 126 125 122 118 113 116 116 117 117 114 112 108 102 100 99
264 256 247 230 274 219 216 185 192 194 190 185 184 185 179 183 175 172 167 164 162 158 157 150 143 138 132 127 125 122 119 111 122 116 123 125 119 114 111 108 109 108 108
278 253 236 193 161 178 183 189 192 202 188 186 184 187 177 174 170 169 166 163 161 160 158 156 151 144 136 130 126 126 116 129 120 128 131 126 126 118 116 113 110 110 106
267 290 264 197 182 198 205 230 237 224 189 186 186 183 171 171 171 166 168 162 162 163 164 163 158 149 143 143 136 128 129 133 131 135 144 135 130 119 116 115 109 106 102
261 251 240 211 209 204 219 206 204 207 196 191 188 184 176 167 163 175 165 161 162 165 168 167 164 157 159 156 146 140 143 131 132 137 147 143 137 124 126 122 110 103 97
278 263 225 210 202 206 208 203 201 192 193 190 188 178 179 170 171 170 163 160 162 162 169 170 168 171 165 165 163 154 146 147 144 145 149 148 145 137 134 126 108 101 90
271 256 228 214 212 209 211 205 208 203 199 188 188 183 181 175 171 167 165 161 161 167 168 171 175 174 168 174 166 160 159 154 152 149 161 153 154 148 144 138 122 95 90
272 262 218 208 214 217 217 211 207 208 195 192 186 187 183 182 177 174 169 166 165 173 174 176 175 173 177 173 175 170 170 166 160 159 172 170 167 162 160 155 140 125 118
248 246 242 237 229 232 233 227 218 215 203 193 195 191 191 192 182 177 179 173 172 173 172 172 174 171 178 178 182 179 181 177 178 171 175 183 183 184 184 175 180 174 165
234 234 234 234 244 249 252 247 232 211 204 208 197 195 196 194 184 181 183 179 173 175 176 182 176 178 182 182 183 186 189 191 187 187 181 191 193 194 198 205 208 208 210
233 234 222 231 252 272 257 250 231 212 205 205 196 199 189 188 185 188 186 183 183 181 186 186 184 186 192 188 187 192 195 193 201 199 196 196 199 197 200 219 213 222 224
239 228 210 217 239 225 186 194 181 177 180 190 198 196 187 186 189 190 189 191 186 186 192 188 191 192 190 188 193 198 205 203 208 206 205 208 208 206 204 210 218 221 225
225 217 204 208 222 214 169 148 149 153 169 157 178 184 183 186 189 188 193 195 191 193 193 197 196 197 200 201 191 205 216 225 226 224 218 218 219 219 216 217 214 216 230
222 208 200 204 209 190 182 160 165 168 164 177 182 180 178 189 190 193 199 198 196 197 202 202 204 200 212 217 212 211 220 233 235 233 229 228 223 225 229 232 222 220 220
211 216 196 204 215 195 185 169 164 172 179 182 182 176 182 187 195 199 204 204 204 209 211 211 216 221 229 228 220 204 221 233 238 234 236 235 236 236 230 232 236 232 230
208 201 195 207 205 202 192 188 190 189 186 173 180 189 186 189 191 202 209 205 209 212 211 220 221 237 235 239 232 231 227 219 218 226 241 238 237 238 240 233 235 241 240
202 208 203 201 196 200 195 201 194 187 176 180 182 192 194 191 194 201 205 204 207 216 221 229 234 240 243 238 238 241 245 246 248 245 259 242 243 246 241 246 247 253 252
193 202 206 201 198 196 195 196 195 190 188 187 187 196 197 200 203 210 212 222 222 221 222 231 239 250 251 254 243 244 241 245 251 244 251 251 263 261 248 253 248 248 259
Wind_Speed_850mb
27 36 63 65 56 62 65 63 59 65 62 61 63 55 54 49 47 49 47 44 42 42 41 38 36 36 37 37 37 35 36 37 38 39 38 38 39 40 40 41 42 39 40
31 37 65 62 64 63 70 68 65 56 66 65 66 60 57 55 50 48 48 47 45 41 42 41 40 40 41 40 40 38 38 39 40 44 48 45 43 44 42 41 40 36 36
28 40 56 65 60 69 55 72 72 75 73 71 70 61 58 60 48 48 49 45 46 42 40 41 41 42 45 45 43 40 39 40 45 47 50 44 44 44 43 40 39 40 38
13 38 48 73 69 60 63 78 79 80 76 75 72 66 60 60 44 33 48 47 44 41 41 42 44 47 47 46 45 43 43 46 53 50 39 41 40 43 41 37 40 38 36
21 30 52 75 73 65 75 81 81 78 74 77 73 65 62 58 48 50 50 48 45 43 46 47 50 49 49 48 47 46 46 47 61 41 37 39 37 38 40 37 38 37 35
25 29 50 77 77 75 75 76 82 82 77 79 73 66 59 59 54 53 51 50 46 47 52 55 53 51 49 48 47 47 46 46 46 40 38 39 36 38 32 30 32 30 31
25 30 48 67 75 80 81 76 85 83 84 82 74 67 61 59 57 55 56 54 49 51 57 57 53 52 50 49 47 45 43 52 36 37 36 35 35 34 33 33 34 34 34
30 36 38 63 46 51 75 81 87 87 87 79 73 67 57 58 58 60 59 54 52 58 58 54 52 51 47 48 45 44 41 46 37 36 36 35 36 35 33 34 33 33 32
31 26 30 29 48 98 70 73 85 94 87 80 73 66 58 57 62 64 61 57 56 58 55 53 50 46 42 43 41 40 39 47 33 32 34 33 34 33 33 33 32 33 31
23 24 20 22 29 68 60 61 61 67 81 83 73 68 65 60 65 68 65 58 56 58 56 51 48 43 42 39 38 36 34 40 31 31 28 32 33 32 32 32 31 31 30
20 12 11 24 10 49 58 54 58 67 74 77 72 71 71 74 69 69 63 60 58 56 54 51 47 42 40 35 34 33 32 28 29 25 27 31 32 31 29 29 29 28 27
12 20 15 37 41 50 63 57 70 71 54 70 71 71 72 77 71 58 64 62 57 53 53 52 45 40 37 35 32 28 23 26 27 26 29 28 27 26 25 25 26 25 24
11 19 15 25 46 65 63 55 57 77 68 70 75 76 71 73 73 65 71 65 58 53 57 54 47 39 30 27 27 22 24 22 23 26 25 24 24 22 22 23 22 21 20
18 18 21 21 44 53 52 66 67 66 80 76 72 83 77 79 79 71 64 63 62 58 59 55 48 35 32 26 25 24 24 22 22 24 23 22 22 20 20 19 18 17 15
18 17 19 25 30 41 61 70 78 80 80 81 82 85 80 82 81 82 63 59 56 53 55 49 42 38 32 29 24 22 22 22 24 23 24 21 21 20 18 16 14 13 12
15 15 19 21 25 31 40 64 73 92 98 85 88 86 83 86 89 90 65 57 57 54 51 46 42 38 34 30 27 26 22 21 22 24 22 23 19 19 17 16 10 8 7
15 16 21 24 26 32 43 53 67 85 99 104 91 86 87 85 93 82 79 56 54 51 50 46 45 37 34 30 30 26 23 23 22 25 26 25 25 20 15 10 10 7 6
19 21 21 18 19 21 42 59 81 88 122 114 100 91 85 90 88 72 79 57 55 55 53 53 45 42 37 29 28 25 24 23 24 25 25 26 28 26 21 15 12 10 7
19 20 24 19 12 13 35 38 56 106 114 99 112 90 91 92 86 79 79 59 67 60 57 52 46 42 38 31 26 26 26 25 26 25 28 30 29 28 24 22 18 15 13
20 18 23 14 11 13 21 33 66 108 104 108 105 109 92 88 88 93 85 73 69 62 57 49 47 44 34 25 24 24 25 25 26 27 29 31 27 29 28 27 25 25 22
21 18 21 12 13 17 19 55 69 88 98 90 103 92 76 88 94 90 81 75 69 62 56 56 49 45 37 35 25 23 29 38 35 35 36 36 37 35 32 30 29 27 32
24 23 22 18 21 32 23 48 71 75 74 76 78 70 63 81 89 88 85 75 67 54 57 57 55 42 44 44 39 22 19 27 46 47 44 42 39 38 40 41 38 38 35
31 26 29 25 28 34 35 51 59 58 60 65 66 68 69 67 85 88 80 69 65 61 57 54 53 46 46 45 50 24 17 24 23 35 53 50 50 52 44 45 49 45 42
36 26 29 27 30 40 46 56 59 63 70 71 67 67 76 76 69 67 73 69 60 60 55 50 49 48 49 49 56 61 44 22 20 16 29 45 54 59 58 49 48 55 54
36 35 34 28 31 44 50 53 60 69 78 73 68 70 77 75 82 76 57 55 52 52 46 47 47 63 58 50 46 49 57 58 59 52 38 26 37 52 57 63 70 65 66
35 35 36 36 33 45 47 48 55 71 84 77 77 65 73 77 80 87 87 74 64 57 60 58 59 66 66 69 61 58 52 48 49 50 67 74 52 62 59 60 61 69 73
Wind_Direction_850mb
198 190 187 183 185 185 189 186 184 178 181 177 173 164 165 161 160 158 154 153 150 148 142 140 138 138 137 137 133 132 128 125 121 116 113 114 113 114 117 102 92 100 119
198 197 191 190 189 191 194 188 188 193 183 181 175 168 168 162 161 158 155 154 152 149 143 143 141 138 133 130 128 127 126 125 120 115 105 99 100 101 104 111 107 109 121
209 196 205 199 196 197 207 194 191 186 183 181 178 172 169 164 157 160 158 153 155 151 147 146 141 138 131 129 126 126 124 123 119 109 103 105 105 108 108 105 99 100 100
236 212 205 207 203 205 205 198 192 188 185 180 177 175 169 164 161 170 164 159 161 156 147 143 138 134 133 129 127 126 124 119 104 90 101 105 109 117 116 118 116 108 108
266 226 213 215 209 202 202 197 194 191 188 183 180 176 170 167 169 168 169 167 163 153 146 143 138 134 131 128 127 126 126 124 109 112 112 111 111 127 128 115 109 109 108
266 241 217 218 204 201 193 192 194 193 188 186 183 177 174 172 171 169 170 167 162 156 147 141 134 132 132 129 127 127 126 116 104 114 115 114 116 122 112 110 102 103 98
273 264 239 228 212 205 200 196 199 193 190 187 182 178 174 174 173 170 170 166 163 155 146 141 136 133 129 127 125 126 126 110 115 111 113 115 115 115 118 113 108 105 98
266 254 245 244 255 210 201 196 197 192 190 188 184 180 178 178 174 171 169 164 159 153 148 142 140 135 130 125 127 128 125 114 114 115 112 115 121 116 111 105 102 98 95
263 253 240 263 253 236 202 200 195 192 189 186 184 182 182 182 175 171 166 161 161 156 152 148 143 134 129 124 126 125 122 118 113 116 116 117 117 114 112 108 102 100 99
264 256 247 230 274 219 216 185 192 194 190 185 184 185 179 183 175 172 167 164 162 158 157 150 143 138 132 127 125 122 119 111 122 116 123 125 119 114 111 108 109 108 108
278 253 236 193 161 178 183 189 192 202 188 186 184 187 177 174 170 169 166 163 161 160 158 156 151 144 136 130 126 126 116 129 120 128 131 126 126 118 116 113 110 110 106
267 290 264 197 182 198 205 230 237 224 189 186 186 183 171 171 171 166 168 162 162 163 164 163 158 149 143 143 136 128 129 133 131 135 144 135 130 119 116 115 109 106 102
261 251 240 211 209 204 219 206 204 207 196 191 188 184 176 167 163 175 165 161 162 165 168 167 164 157 159 156 146 140 143 131 132 137 147 143 137 124 126 122 110 103 97
278 263 225 210 202 206 208 203 201 192 193 190 188 178 179 170 171 170 163 160 162 162 169 170 168 171 165 165 163 154 146 147 144 145 149 148 145 137 134 126 108 101 90
271 256 228 214 212 209 211 205 208 203 199 188 188 183 181 175 171 167 165 161 161 167 168 171 175 174 168 174 166 160 159 154 152 149 161 153 154 148 144 138 122 95 90
272 262 218 208 214 217 217 211 207 208 195 192 186 187 183 182 177 174 169 166 165 173 174 176 175 173 177 173 175 170 170 166 160 159 172 170 167 162 160 155 140 125 118
248 246 242 237 229 232 233 227 218 215 203 193 195 191 191 192 182 177 179 173 172 173 172 172 174 171 178 178 182 179 181 177 178 171 175 183 183 184 184 175 180 174 165
234 234 234 234 244 249 252 247 232 211 204 208 197 195 196 194 184 181 183 179 173 175 176 182 176 178 182 182 183 186 189 191 187 187 181 191 193 194 198 205 208 208 210
233 234 222 231 252 272 257 250 231 212 205 205 196 199 189 188 185 188 186 183 183 181 186 186 184 186 192 188 187 192 195 193 201 199 196 196 199 197 200 219 213 222 224
239 228 210 217 239 225 186 194 181 177 180 190 198 196 187 186 189 190 189 191 186 186 192 188 191 192 190 188 193 198 205 203 208 206 205 208 208 206 204 210 218 221 225
225 217 204 208 222 214 169 148 149 153 169 157 178 184 183 186 189 188 193 195 191 193 193 197 196 197 200 201 191 205 216 225 226 224 218 218 219 219 216 217 214 216 230
222 208 200 204 209 190 182 160 165 168 164 177 182 180 178 189 190 193 199 198 196 197 202 202 204 200 212 217 212 211 220 233 235 233 229 228 223 225 229 232 222 220 220
211 216 196 204 215 195 185 169 164 172 179 182 182 176 182 187 195 199 204 204 204 209 211 211 216 221 229 228 220 204 221 233 238 234 236 235 236 236 230 232 236 232 230
208 201 195 207 205 202 192 188 190 189 186 173 180 189 186 189 191 202 209 205 209 212 211 220 221 237 235 239 232 231 227 219 218 226 241 238 237 238 240 233 235 241 240
202 208 203 201 196 200 195 201 194 187 176 180 182 192 194 191 194 201 205 204 207 216 221 229 234 240 243 238 238 241 245 246 248 245 259 242 243 246 241 246 247 253 252
193 202 206 201 198 196 195 196 195 190 188 187 187 196 197 200 203 210 212 222 222 221 222 231 239 250 251 254 243 244 241 245 251 244 251 251 263 261 248 253 248 248 259